Wind_Speed
68 68 68 69 70 70 71 71 71 72 72 72 71 72 73 74 74 76 77 78 79 79 79 80 81 82 83 83 83 84 86 88 89 90 91 92 93 94 95 96 96 97
70 70 71 72 72 73 74 74 74 75 75 75 74 75 76 76 75 76 79 80 81 82 83 83 84 85 85 86 86 86 88 90 91 91 93 94 95 96 97 98 98 99
73 73 74 74 75 76 77 77 77 78 78 78 78 78 79 79 78 78 81 83 84 85 86 86 87 87 88 88 89 89 90 92 93 93 95 96 97 98 99 100 100 100
76 76 76 77 78 79 79 80 80 81 82 82 82 82 82 82 81 81 83 85 86 87 88 89 89 90 91 91 92 92 93 94 95 96 97 98 99 100 101 102 102 103
79 79 79 80 81 81 82 83 83 84 85 85 86 86 86 86 85 85 86 87 89 90 90 91 92 93 94 94 95 95 96 97 97 98 99 101 102 103 104 105 105 106
81 81 82 82 83 84 85 85 86 86 87 88 88 89 90 90 89 90 90 91 91 92 93 94 95 96 98 98 98 98 99 100 100 102 103 104 105 106 107 108 109 109
85 84 85 85 86 87 87 88 88 89 90 90 91 92 93 93 93 93 93 94 94 95 96 97 98 99 101 102 102 102 102 103 103 105 106 107 108 109 110 111 111 112
89 89 89 89 89 90 90 91 91 92 92 93 94 95 96 96 96 96 96 96 97 98 99 100 101 102 104 105 105 105 105 106 107 108 109 110 111 112 113 113 114 114
93 93 93 93 93 93 94 94 94 94 95 96 97 98 99 99 99 99 99 99 100 100 102 102 103 104 106 108 108 108 108 109 110 111 112 113 113 114 114 115 115 116
95 96 96 97 97 97 97 97 97 98 98 99 100 100 101 102 102 102 103 103 103 104 104 105 105 106 108 109 111 111 111 112 112 113 114 114 115 115 116 116 117 118
96 97 98 98 99 100 100 100 101 101 102 102 103 104 104 105 105 105 106 106 106 107 107 107 108 108 109 111 113 113 113 114 115 115 116 116 117 117 118 118 119 120
95 96 97 98 99 100 101 102 102 103 104 105 106 107 107 107 108 108 109 109 109 109 109 110 110 110 111 113 114 115 115 116 116 117 117 118 118 119 119 120 121 122
94 95 96 97 98 100 101 102 102 103 104 105 106 107 108 109 110 110 111 111 112 112 112 112 112 112 113 114 115 116 117 117 118 118 119 119 120 120 121 122 123 124
95 95 96 97 98 99 100 101 101 102 103 104 105 106 107 108 109 110 111 111 112 113 114 114 114 114 115 116 117 117 118 119 120 120 121 121 122 122 123 124 124 125
97 97 98 98 99 100 100 101 101 102 102 103 104 105 106 107 107 108 109 109 110 111 112 113 113 114 114 115 116 116 117 118 118 119 119 120 120 121 121 121 122 123
100 100 101 101 101 102 102 103 103 103 103 104 104 105 105 106 107 107 108 109 109 109 110 111 111 112 113 113 114 114 115 115 116 116 117 117 118 118 119 119 120 121
102 103 103 103 104 104 105 105 105 106 106 106 106 106 107 107 108 109 109 110 110 110 111 111 111 112 113 114 114 115 115 116 116 117 117 118 118 119 119 120 121 123
104 104 105 106 106 107 107 108 109 109 109 110 110 111 111 111 112 112 112 113 113 113 113 114 114 115 115 116 116 116 117 117 118 119 119 120 121 121 122 123 124 124
106 107 107 108 109 109 110 111 111 112 113 113 114 115 115 115 115 116 116 116 116 116 116 117 117 117 118 117 118 118 118 119 119 120 121 121 122 123 124 124 125 125
109 109 110 110 111 111 112 113 114 114 115 116 116 117 118 118 118 118 119 119 119 119 119 119 119 119 119 119 119 119 120 120 121 121 122 122 123 124 124 124 124 124
110 111 111 112 113 114 114 115 116 116 117 117 118 119 120 120 120 121 121 121 121 121 121 121 122 122 122 122 122 121 121 122 122 123 123 123 123 124 124 124 123 123
112 113 114 114 115 116 116 117 117 118 119 119 120 120 121 121 122 122 122 123 123 123 123 124 124 124 124 124 124 124 123 123 123 123 123 123 123 123 122 122 121 121
115 116 117 117 118 119 119 120 120 121 121 122 122 122 122 123 123 123 124 124 124 124 124 124 125 125 125 125 125 125 124 124 124 123 123 122 121 121 120 119 119 118
118 119 120 121 122 122 122 123 123 124 124 125 125 125 125 125 126 126 126 125 125 125 125 125 125 125 125 124 124 123 123 122 122 121 120 119 119 118 117 116 115 113
122 123 124 124 125 125 125 126 126 127 127 127 127 127 127 127 127 126 126 125 125 125 124 124 124 123 123 123 122 121 120 119 118 117 116 116 115 114 112 111 110 110
124 125 126 126 126 126 126 126 127 126 126 126 126 126 125 125 124 123 123 122 122 122 121 121 121 120 120 119 118 117 116 115 114 113 112 111 110 108 107 107 107 107
Wind_Direction
273 274 274 275 276 277 278 280 281 282 284 285 285 285 285 285 285 285 285 286 286 287 289 290 290 291 291 292 292 293 294 294 295 296 297 298 298 299 300 302 302 303
271 272 273 274 275 276 277 278 280 281 282 283 284 284 284 285 285 285 285 285 286 287 288 289 289 289 290 290 291 292 292 293 294 295 296 297 298 299 300 301 301 302
270 271 272 273 274 275 276 278 279 280 281 282 282 283 283 284 285 284 284 285 285 286 287 288 288 288 289 289 290 291 292 292 293 294 295 296 297 298 299 299 300 301
270 271 272 273 274 275 276 277 278 279 280 281 282 282 283 284 284 284 283 284 285 286 286 287 287 288 288 289 290 290 291 292 293 294 294 295 296 296 297 298 299 299
270 271 272 273 274 275 276 277 277 278 279 280 281 282 282 283 284 284 283 284 284 285 286 286 287 288 288 289 289 290 291 291 292 293 293 294 295 295 296 297 298 298
270 271 272 272 273 274 275 275 276 277 278 279 280 281 282 283 283 283 283 284 284 285 285 286 287 287 288 289 290 290 291 292 292 292 293 293 294 295 296 297 297 298
272 273 273 273 274 274 275 275 276 277 278 279 280 280 281 282 283 283 283 284 284 284 285 286 286 287 288 289 290 291 291 292 292 292 293 293 294 295 296 296 297 298
275 275 275 275 275 275 276 276 276 277 278 279 280 280 281 282 282 283 284 284 284 285 285 285 286 287 288 289 290 290 291 292 292 292 293 294 294 295 296 296 297 298
274 275 275 276 276 276 276 277 277 278 278 279 280 280 281 282 282 283 284 284 285 285 285 286 286 287 288 289 289 290 291 292 292 293 293 294 295 295 296 296 297 297
273 274 275 275 276 276 277 277 278 278 279 280 280 281 281 282 283 284 284 285 285 285 286 286 287 287 288 289 289 290 291 291 292 293 293 294 295 295 296 296 297 297
272 273 274 275 276 276 277 278 278 279 279 280 281 281 282 282 283 284 284 285 285 286 286 287 287 288 288 289 289 290 291 292 292 293 293 294 294 295 296 296 296 297
273 273 274 275 276 277 277 278 279 279 280 281 281 282 282 283 284 284 285 285 286 286 287 287 287 288 288 289 289 290 291 292 292 293 293 294 294 295 295 295 296 296
273 274 275 275 276 277 278 278 279 280 280 281 281 282 282 283 283 284 285 285 286 286 287 287 287 288 288 288 289 290 290 291 292 292 292 293 293 294 294 294 294 295
274 274 275 276 276 277 277 278 279 279 280 280 281 281 282 282 283 284 284 284 285 286 286 286 287 287 287 288 288 289 289 290 290 291 291 292 292 292 293 293 293 294
275 275 276 276 276 277 277 278 278 279 279 280 280 281 281 282 282 283 283 284 284 285 285 286 286 287 287 288 288 289 289 290 290 291 291 291 292 292 292 293 293 294
276 277 277 277 278 278 278 278 279 279 279 280 280 280 281 281 282 282 283 283 284 284 285 285 286 287 287 288 288 289 289 289 290 290 291 291 291 292 292 292 293 293
276 277 278 278 278 279 279 279 280 280 280 280 280 281 281 282 282 282 283 283 283 284 284 284 285 285 286 286 287 287 288 288 288 289 289 290 290 290 291 291 292 292
276 277 277 278 278 279 279 280 280 280 281 281 282 282 282 283 283 283 283 284 284 284 284 285 285 285 285 286 286 286 287 287 287 288 288 288 289 289 290 290 291 292
277 277 277 278 278 279 279 279 280 281 281 282 282 283 283 284 284 284 285 285 285 285 285 285 286 286 286 286 286 286 286 287 287 287 287 287 288 288 289 290 291 291
277 277 278 278 278 279 279 280 280 281 281 282 282 283 283 283 284 284 284 284 284 285 285 285 285 285 285 285 285 286 286 286 286 286 286 286 287 287 288 289 289 290
276 277 277 277 278 278 279 279 280 280 280 281 281 282 282 282 283 283 283 283 283 283 284 284 284 284 284 284 284 284 284 284 285 285 285 285 286 286 287 287 288 289
276 276 277 277 278 278 279 279 279 280 280 280 280 281 281 281 281 282 282 282 282 282 283 283 283 283 283 283 283 284 284 284 284 284 284 285 285 286 286 287 287 288
277 277 277 278 278 279 279 280 280 280 280 280 281 281 281 281 281 281 281 281 281 281 282 282 282 282 282 282 282 283 283 283 283 284 284 284 285 285 286 286 287 288
277 278 278 279 279 279 280 280 280 280 280 280 280 280 281 281 281 280 280 280 280 280 280 281 281 281 281 281 281 282 282 282 283 283 283 284 284 285 286 287 288 289
278 278 279 279 279 279 279 280 280 280 280 280 280 280 280 280 280 280 280 280 280 280 280 280 280 280 280 281 281 281 282 282 283 283 284 284 285 286 287 288 289 290
279 279 279 279 279 279 279 280 280 280 280 280 280 280 280 280 280 280 280 280 280 280 280 280 280 280 281 281 282 282 283 283 284 284 285 286 287 288 289 289 290 290
Height
10810 10809 10808 10807 10806 10805 10803 10802 10802 10800 10798 10796 10795 10791 10788 10787 10786 10782 10779 10777 10775 10772 10772 10770 10767 10765 10762 10759 10757 10754 10749 10743 10741 10739 10735 10732 10728 10724 10721 10717 10713 10709
10803 10802 10801 10799 10798 10797 10795 10794 10794 10792 10790 10788 10787 10784 10780 10779 10779 10776 10771 10769 10767 10764 10762 10761 10758 10756 10754 10751 10748 10747 10743 10737 10734 10732 10728 10724 10720 10716 10713 10709 10705 10701
10796 10795 10795 10793 10791 10790 10788 10787 10786 10784 10781 10780 10778 10776 10773 10771 10771 10770 10765 10761 10758 10756 10754 10752 10750 10747 10745 10743 10740 10738 10735 10730 10727 10724 10720 10716 10712 10709 10705 10701 10697 10693
10789 10789 10788 10787 10785 10783 10781 10780 10779 10776 10773 10772 10770 10767 10765 10763 10763 10762 10758 10754 10751 10749 10746 10743 10740 10737 10735 10734 10731 10729 10727 10723 10719 10716 10712 10708 10704 10701 10697 10693 10689 10684
10782 10782 10781 10779 10778 10776 10775 10773 10771 10769 10766 10764 10761 10759 10757 10755 10755 10753 10751 10748 10744 10741 10738 10735 10732 10728 10725 10724 10722 10720 10717 10715 10712 10708 10704 10700 10696 10692 10688 10684 10680 10675
10774 10774 10773 10772 10770 10769 10767 10765 10763 10761 10759 10756 10754 10751 10748 10747 10746 10744 10742 10740 10737 10734 10730 10727 10724 10720 10716 10714 10713 10711 10708 10706 10703 10699 10695 10691 10687 10683 10679 10675 10671 10666
10764 10765 10764 10763 10762 10760 10759 10757 10755 10753 10751 10749 10747 10744 10740 10738 10737 10735 10734 10732 10729 10726 10722 10719 10716 10711 10707 10704 10703 10701 10699 10696 10694 10689 10685 10682 10678 10674 10670 10665 10661 10657
10753 10754 10754 10754 10753 10751 10750 10748 10747 10745 10743 10741 10739 10735 10732 10730 10728 10726 10725 10723 10721 10718 10714 10711 10708 10704 10699 10695 10693 10692 10690 10687 10684 10680 10676 10673 10669 10665 10660 10656 10652 10647
10743 10743 10742 10743 10742 10741 10740 10739 10738 10736 10734 10732 10730 10726 10723 10721 10719 10717 10715 10714 10712 10709 10705 10702 10700 10696 10691 10686 10683 10682 10680 10677 10674 10671 10667 10663 10659 10655 10651 10646 10642 10637
10734 10733 10732 10732 10731 10730 10730 10729 10728 10726 10724 10722 10720 10716 10713 10711 10710 10708 10706 10704 10702 10699 10696 10693 10691 10688 10683 10677 10673 10671 10670 10667 10664 10660 10657 10653 10649 10645 10641 10636 10631 10626
10726 10724 10723 10722 10721 10720 10719 10718 10717 10716 10714 10712 10709 10706 10703 10702 10700 10698 10696 10693 10691 10688 10686 10684 10681 10679 10675 10669 10664 10661 10659 10657 10653 10650 10646 10642 10638 10634 10630 10625 10620 10615
10717 10715 10714 10713 10712 10711 10709 10708 10707 10706 10704 10702 10699 10696 10694 10691 10690 10688 10685 10683 10681 10678 10676 10673 10671 10669 10666 10659 10654 10651 10649 10646 10643 10639 10635 10631 10627 10623 10618 10613 10608 10603
10708 10707 10706 10704 10703 10701 10699 10698 10697 10695 10694 10692 10689 10687 10684 10681 10679 10677 10675 10672 10669 10666 10664 10662 10659 10658 10656 10650 10644 10641 10638 10635 10632 10628 10624 10620 10616 10611 10607 10602 10597 10592
10698 10697 10696 10694 10693 10691 10689 10688 10686 10685 10683 10681 10679 10676 10673 10671 10668 10666 10664 10662 10659 10656 10652 10649 10648 10647 10644 10640 10636 10632 10628 10625 10621 10617 10613 10608 10604 10600 10595 10590 10585 10580
10686 10685 10685 10683 10682 10680 10679 10677 10675 10674 10672 10670 10668 10666 10663 10660 10657 10655 10653 10651 10649 10646 10641 10638 10636 10635 10631 10628 10625 10622 10618 10614 10609 10606 10602 10597 10592 10588 10583 10578 10573 10568
10673 10673 10672 10671 10670 10668 10667 10665 10664 10662 10660 10659 10657 10654 10652 10650 10647 10645 10642 10639 10637 10636 10632 10628 10626 10623 10619 10616 10613 10610 10606 10602 10598 10594 10590 10585 10581 10576 10571 10566 10561 10557
10662 10661 10660 10659 10658 10656 10654 10653 10651 10649 10648 10646 10645 10643 10640 10638 10636 10633 10630 10628 10625 10623 10620 10618 10615 10612 10608 10605 10601 10598 10594 10591 10587 10582 10578 10573 10569 10564 10560 10555 10550 10546
10651 10650 10648 10647 10645 10643 10641 10639 10637 10636 10634 10632 10631 10629 10627 10625 10623 10620 10618 10615 10613 10611 10607 10604 10602 10599 10596 10593 10589 10586 10582 10578 10575 10570 10565 10561 10557 10552 10548 10543 10539 10535
10638 10637 10635 10634 10632 10630 10628 10626 10624 10622 10621 10619 10617 10615 10613 10611 10608 10606 10604 10601 10599 10597 10594 10590 10587 10583 10581 10579 10576 10572 10569 10565 10561 10557 10552 10548 10544 10540 10536 10532 10528 10524
10625 10624 10622 10620 10619 10617 10615 10613 10611 10609 10608 10606 10604 10601 10599 10597 10595 10592 10590 10587 10585 10583 10580 10577 10573 10569 10566 10564 10561 10558 10555 10551 10547 10543 10539 10535 10531 10528 10524 10521 10517 10512
10612 10611 10609 10607 10606 10604 10602 10601 10599 10597 10595 10593 10591 10589 10586 10584 10581 10579 10576 10574 10571 10569 10566 10563 10559 10555 10552 10549 10546 10544 10540 10536 10532 10529 10526 10522 10519 10515 10512 10508 10504 10500
10600 10598 10596 10595 10593 10591 10590 10588 10586 10584 10582 10580 10578 10575 10573 10570 10567 10564 10562 10559 10557 10554 10551 10548 10544 10540 10538 10535 10531 10529 10525 10521 10518 10515 10512 10509 10506 10502 10499 10495 10492 10488
10587 10586 10584 10582 10581 10579 10577 10575 10573 10570 10567 10565 10563 10560 10558 10555 10552 10550 10547 10544 10542 10539 10537 10533 10529 10525 10523 10520 10516 10514 10510 10507 10504 10501 10499 10496 10493 10489 10486 10483 10479 10475
10574 10573 10571 10569 10567 10566 10564 10561 10558 10556 10552 10550 10547 10545 10542 10539 10537 10534 10531 10528 10526 10523 10521 10518 10514 10511 10508 10505 10502 10499 10497 10494 10491 10488 10486 10482 10479 10476 10473 10470 10466 10462
10561 10560 10557 10554 10552 10550 10549 10546 10543 10540 10537 10534 10531 10529 10527 10524 10521 10518 10515 10512 10510 10507 10505 10502 10498 10495 10492 10490 10488 10485 10483 10480 10477 10475 10472 10469 10466 10464 10461 10457 10453 10449
10546 10543 10540 10538 10536 10534 10532 10529 10526 10523 10521 10518 10515 10512 10510 10507 10504 10502 10499 10497 10494 10492 10490 10486 10482 10479 10476 10475 10473 10471 10469 10466 10463 10461 10458 10456 10454 10452 10448 10444 10441 10438